This is the latest recevied weather packets stored in our database for station/object KC8RFE-1. If no packets are shown the sender has not sent any weather packets the latest 1 day(s).
| Time | Temp. | Humidity | Pressure | Rain* | Wind** | Luminosity | Snow |
|---|---|---|---|---|---|---|---|
| 1777970010 | 12.22° C | 9% | - | 0 mm | 0 m/s | - | - |
| 1777969710 | 12.22° C | 9% | - | 0 mm | 0.45 m/s, 171° | - | - |
| 1777969410 | 12.22° C | 9% | - | 0 mm | 0.89 m/s, 138° | - | - |
| 1777969110 | 12.22° C | 9% | - | 0 mm | 0.89 m/s, 146° | - | - |
| 1777968810 | 12.22° C | 9% | - | 0 mm | 1.34 m/s, 127° | - | - |
| 1777968510 | 12.22° C | 9% | - | 0 mm | 0.89 m/s, 147° | - | - |
| 1777968209 | 12.22° C | 9% | - | 0 mm | 1.34 m/s, 171° | - | - |
| 1777967909 | 12.22° C | 9% | - | 0 mm | 1.79 m/s, 161° | - | - |
| 1777967609 | 12.22° C | 9% | - | 0 mm | 1.79 m/s, 157° | - | - |
| 1777967309 | 12.22° C | 9% | - | 0 mm | 2.24 m/s, 126° | - | - |
| 1777967009 | 12.22° C | 9% | - | 0 mm | 1.79 m/s, 134° | - | - |
| 1777966709 | 12.22° C | 9% | - | 0 mm | 1.79 m/s, 130° | - | - |
| 1777966409 | 12.22° C | 9% | - | 0 mm | 1.79 m/s, 112° | - | - |
| 1777966109 | 12.22° C | 9% | - | 0 mm | 1.79 m/s, 151° | - | - |
| 1777965809 | 12.22° C | 9% | - | 0 mm | 1.34 m/s, 130° | - | - |
| 1777965509 | 12.22° C | 9% | - | 0 mm | 0.89 m/s, 112° | - | - |
| 1777965209 | 12.22° C | 9% | - | 0 mm | 0.89 m/s, 119° | - | - |
| 1777964909 | 12.22° C | 9% | - | 0 mm | 0.89 m/s, 125° | - | - |
| 1777964609 | 12.22° C | 9% | - | 0 mm | 0.89 m/s, 133° | - | - |
| 1777964309 | 12.22° C | 9% | - | 0 mm | 0.89 m/s, 147° | - | - |
| 1777964009 | 12.22° C | 9% | - | 0 mm | 0.45 m/s, 107° | - | - |
| 1777963709 | 12.22° C | 9% | - | 0 mm | 0 m/s | - | - |
| 1777963409 | 12.22° C | 9% | - | 0 mm | 0.89 m/s, 130° | - | - |
| 1777963109 | 12.22° C | 9% | - | 0 mm | 0.45 m/s, 98° | - | - |
| 1777962809 | 12.22° C | 8% | - | 0 mm | 0.89 m/s, 97° | - | - |
* Rain latest hour (hover to see other rain measurements)
** Current wind speed in m/s (hover to see current wind gust speed)